User: anonymous   Login
Location: Ostrava
(49.8330°N, 18.2830°E)
Time: 05:20:15
(UTC+02:00)
Language:

Cosmos 1766 - Orbit

View from above orbital plane
View from above orbital plane
View from above satellite
View from above satellite

Ground track
Ground track

The orbit data is extracted from the following two-line orbital elements,

1 16881U 86055A   16145.40526373  .00001310  00000-0  79784-4 0  9999
2 16881  82.4985  43.8115 0016213   5.8572 354.2844 15.09455059622771
Epoch (UTC): 24 May 2016 09:43:34
Eccentricity: 0.0016213
inclination: 82.4985°
perigee height: 526 km
apogee height: 549 km
right ascension of ascending node: 43.8115°
argument of perigee: 5.8572°
revolutions per day: 15.09455059
mean anomaly at epoch: 354.2844°
orbit number at epoch: 62277

The dashed part of the orbit path shows where the satellite is in the earth's shadow,  

DLR